Tracking 18628 objects as of 25-April-2017
HD Live streaming from Space Station
objects crossing your sky now

COSMOS 2251 DEB

Track COSMOS 2251 DEB now!
10-day predictions


NORAD ID: 34131
Int'l Code: 1993-036LC
Perigee: 703.6 km
Apogee: 703.6 km
Inclination: 74.1 °
Period: 98.7 minutes
Semi major axis: 7074 km
RCS: 0.018 m2 (small)
Launch date: June 16, 1993
Source: Commonwealth of Independent States (former USSR) (CIS)
Launch site: PLESETSK MISSILE AND SPACE COMPLEX (PKMTR)

Note: This is SATELLITE DEBRIS
Your satellite tracking list
Your tracking list is empty





NASA's NSSDC Master Catalog

Two Line Element Set (TLE):
1 34131U 93036LC  17114.80747750 +.00004980 +00000-0 +10661-2 0  9992
2 34131 074.1217 238.6437 0007274 288.6443 192.3493 14.58979127431815
Source of the keplerian elements: AFSPC